Location: Bogotá
(4.6533°N, 74.0837°W)
Time: 14:22:07
(UTC+00:00)

ISS - Pass Details

Date: 08 July 2025
Orbit: 413 x 417 km, 51.6° (Epoch: 13 July)

Event Time Altitude Azimuth Distance (km) Brightness Sun altitude
Rises 23:38:13 0° 230° (SW) 2,337 0.4 -6.7°
Reaches altitude 10° 23:40:25 10° 239° (WSW) 1,474 -0.5 -7.2°
Maximum altitude 23:43:27 34° 306° (NW) 695 -1.8 -7.9°
Drops below altitude 10° 23:46:30 10° 13° (NNE) 1,471 -0.9 -8.5°
Sets 23:48:42 0° 23° (NNE) 2,330 0.0 -9.0°
